CRC

Crooked River Challenge - 350 Mile Race

Station: 350 Miles - A Race

Distance: 353.666 Miles    

Release: 01-Oct-2019 07:30

Weather Release: Partly Cloudy    Arrival: Partly Cloudy

Wind at Release: 3 mph N     Wind at Arrival: 7 mph NE

Temp at Release: 32°    Temp at Arrival: 51°

Lofts: 139

Birds: 433

Clocked: 400

11 on the drop
Drops Pos Breeder Pigeon Name Color Sex Ent Arrival Speed To Win Elg PdOpB
12470.73 1 7 Cha Brothers Loft - MN 0363-AU19-UNIT Turkkon x Bulldozer BB H 1 15:07:24.97 1360.801 00:00:00 Yes
14552.73 2 Great Wall - VA 0002-AU19-CHAN BC H 1 15:07:26.33 1360.733 00:00:01 Yes
6222.73 3 Sooner Challenge - OK 8542-AU19-TIPC 16521 X 83 BB H 1 15:07:30.50 1360.527 00:00:06 Yes
6222.73 4 D B J Loft - FL 1738-AU19-DBJ BC C 1 15:07:30.59 1360.522 00:00:06 Yes
6222.73 5 Kessler Family Loft - OR 0002-AU19-NRK Car stew BB H 1 15:07:32.65 1360.420 00:00:08 Yes
6222.73 6 Andy Skwiat - IN 0031-AU19-ANDY 038692 x 607 BBWF H 1 15:07:34.70 1360.319 00:00:10 Yes
6222.73 7 Yendez Loft - TX 0306-AU19-YEND YENDEZ 306 BB H 1 15:07:54.54 1359.336 00:00:30 Yes
6222.73 8 Da-Dong - WI 1633-AU19-RAC 7020-845 BB H 1 15:08:10.18 1358.563 00:00:45 Yes
6222.73 9 Kolvenbag & Son - PA 1335-IF19-KOLV DC C 1 15:08:51.01 1356.548 00:01:26 Yes
6222.73 10 Genesis Syndicate Loft - AZ 0702-AU19-GEN BBSP C 1 15:08:58.61 1356.174 00:01:34 Yes
6222.73 11 A H C Loft - FL 0408-IF19-BQC 🍊509x18302🍊 BC H 1 15:09:08.95 1355.665 00:01:44 Yes
900 12 D B J Loft - FL 1766-AU19-DBJ BBWF H 2 15:10:35.35 1351.426 00:03:10 Yes
850 13 Kolvenbag & Son - PA 1330-IF19-KOLV BC H 2 15:10:46.19 1350.896 00:03:21 Yes
21625 14 Balikbayan Express - WA 0007-AU19-CEYX BBSP H 1 15:11:00.36 1350.204 00:03:35 Yes
750 15 Pleasant Task Farm - PA 19005-AU19-PTF 206xKlaas634 BB C 1 15:11:24.71 1349.017 00:04:00 Yes
700 16 A P C Loft - TX 19052-AU19-APC BB H 1 15:11:27.30 1348.891 00:04:02 Yes
650 17 Wolf Den & Family Loft - IL 0090-AU19-WOLF BB C 1 15:11:54.58 1347.563 00:04:30 Yes
600 18 ** J-Ireneo Loft ** - CA 0416-AU19-JIR DCSP H 1 15:11:59.31 1347.332 00:04:34 Yes
550 19 Roger Teeters - WA 4611-AU19-LKC BB C 1 15:12:01.44 1347.229 00:04:36 Yes
500 20 ** J-Ireneo Loft ** - CA 0414-AU19-JIR BCWF C 2 15:13:31.91 1342.847 00:06:07 Yes
450 21 Roger Teeters - WA 4618-AU19-LKC BC H 2 15:13:40.46 1342.434 00:06:15 Yes
400 22 Paul Yahiku - OR 19020-AU19-YAHI 4634 x 4597 BB H 1 15:13:40.94 1342.411 00:06:16 Yes
400 23 A-Lo Loft/Nemelka - UT 2888-AU19-FOYS ☯️Gangstaoflovex7010 BB H 1 15:14:25.21 1340.278 00:07:00 Yes
400 24 Dehesa Valley Classic - CA 19018-AU19-PUEB BC H 1 15:14:41.35 1339.503 00:07:16 Yes
400 25 Andy Skwiat - IN 0004-AU19-ANDY 827 x 65 BBWF H 2 15:14:42.94 1339.426 00:07:18 Yes
400 26 Pleasant Task Farm - PA 19053-AU19-PTF 4xPTF839 BBSP H 2 15:14:51.04 1339.037 00:07:26 Yes
400 27 Balikbayan Express - WA 0003-AU19-CEYX BC H 2 15:14:51.32 1339.023 00:07:26 Yes
400 28 Southern Belle - GA 0108-AU19-BELL BelleTop BB H 1 15:14:52.34 1338.975 00:07:27 Yes
400 29 Adam Hajduga - IL 0997-AU19-HAJD White Eagle BB H 1 15:14:52.51 1338.967 00:07:28 Yes
350 30 Marengo Creek Farms - AL 3295-AU19-MCF BB H 1 15:14:54.87 1338.853 00:07:30 Yes
350 31 M & Y Connection - MI 0025-AU19-MY 6026 x 79 BB C 1 15:14:57.12 1338.745 00:07:32 Yes
350 32 A-Lo Loft/Nemelka - UT 9025-AU19-NRPL ☯️Maria BCWF H 2 15:15:00.28 1338.594 00:07:35 Yes
350 33 Fanway Family Loft - NS 19130-CU19-CNRP DC H 1 15:15:02.64 1338.481 00:07:38 Yes
350 34 Smith R.P.L. - UT 4525-AU19-SMIT BB C 1 15:15:07.69 1338.238 00:07:43 Yes
350 35 Peach Classic - GA 19032-AU19-PCL Astoria BB H 1 15:15:09.55 1338.149 00:07:45 Yes
350 36 M & Y Connection - MI 0026-AU19-MY 6026 x 79 BB C 2 15:15:14.57 1337.908 00:07:50 Yes
2432 37 Lamonta - OR 2507-AU19-FOYS BB C 1 15:15:14.65 1337.904 00:07:50 Yes
350 38 Shi Loft - PA 7048-IF19-ERIE BBSP H 1 15:15:15.91 1337.844 00:07:51 Yes
350 39 Baptista - IL 0084-AU19-FAMP BB H 1 15:18:25.85 1328.803 00:11:01 Yes
350 40 P N W Challenge - ID 0511-AU19-IDA “PAIR #J6” BB H 1 15:18:26.33 1328.780 00:11:01 Yes
350 41 Pleasant Task Farm - PA 19049-AU19-PTF 528xJOSEY BB H 3 15:20:06.56 1324.058 00:12:42 Yes
350 42 Andy Skwiat - IN 0038-AU19-ANDY 550 x 188 BB H 3 15:20:08.87 1323.950 00:12:44 Yes
350 43 Genesis Syndicate Loft - AZ 0714-AU19-GEN BBSP H 2 15:20:08.96 1323.946 00:12:44 Yes
44 Ganus Family Loft - IN 0881-AU19-GFL DEBBIES PICK TO WIN BBWF H 1 15:20:10.17 1323.889 00:12:45 Yes
3712.5 45 A F L - GA 0036-IF19-AFL BB C 1 15:20:10.83 1323.858 00:12:46 Yes
46 Kessler Family Loft - OR 0003-AU19-NRK Slick Nick BB H 2 15:20:11.21 1323.840 00:12:46 Yes
47 A P C Loft - TX 19043-AU19-APC BB H 2 15:20:12.39 1323.785 00:12:47 Yes
2969.7 48 Greek Connection - SC 1246-AU19-GRK KRONOS BB C 1 15:20:12.85 1323.763 00:12:48 Yes
49 Zhengloft - FL 19102-IF19-ZHEN BB C 1 15:20:13.88 1323.715 00:12:49 Yes
50 Poorhouse Road Loft - VA 29719-AU19-ARPU G6 BBWF H 1 15:20:14.47 1323.687 00:12:50 Yes
51 Carini / Codd - OR 0037-AU19-CODD BB C 1 15:20:15.48 1323.640 00:12:51 Yes
1485 52 K T Loft - IN 0413-AU19-KT BBWF H 1 15:20:15.52 1323.638 00:12:51 Yes
53 Emerson & Donnelly - SC 0219-AU19-MERL SLWF H 1 15:20:15.74 1323.628 00:12:51 Yes
54 Keyways - OR 3195-AU19-ARPU 1906 x 1082 BC C 1 15:20:16.78 1323.579 00:12:52 Yes
55 Mystro - MN 13392-AU19-FOYS BCWF H 1 15:20:17.36 1323.552 00:12:52 Yes
1857 56 Greek Connection - SC 1225-AU19-GRK BEAST MODE BC H 2 15:20:18.39 1323.503 00:12:53 Yes
57 Steven Loft - TX 0015-AU19-YE BBWF C 1 15:20:18.82 1323.483 00:12:54 Yes
58 Baptista - IL 0083-AU19-FAMP BC H 2 15:20:20.84 1323.389 00:12:56 Yes
59 Greek Connection - SC 1238-AU19-GRK GENERAL LUDO BB H 3 15:20:21.86 1323.341 00:12:57 Yes
60 Baldwin & Tilson - NC 9002-AU19-TENT KW-362 BB H 1 15:20:21.89 1323.339 00:12:57 Yes
61 Da-Dong - WI 1624-AU19-RAC 80-364 BB H 2 15:20:22.45 1323.313 00:12:57 Yes
62 Cuevas Classic - TX 3907-AU19-DALL Dash For Cash 💰 💵 BB H 1 15:20:23.89 1323.246 00:12:59 Yes
63 A P C Loft - TX 19054-AU19-APC BB C 3 15:20:24.92 1323.197 00:13:00 Yes
64 Da-Dong - WI 1634-AU19-RAC 7020-845 BB H 3 15:20:30.00 1322.959 00:13:05 Yes
65 Shi Loft - PA 7040-IF19-ERIE BB H 2 15:20:31.04 1322.910 00:13:06 Yes
66 Wise Loft - IL 4120-AU19-CHIC BB H 1 15:20:38.69 1322.552 00:13:14 Yes
67 Lising Syndicate - CA 28007-AU19-ARPU Lucky Seven RD H 1 15:20:38.87 1322.544 00:13:14 Yes
68 Amer Loft - GA 0110-IF19-AFL BBWF C 1 15:20:39.90 1322.495 00:13:15 Yes
69 S F L - WV 0084-AU19-SFL Pair 56 BB C 1 15:20:47.37 1322.146 00:13:22 Yes
70 Powerstroke Loft - UT 0520-AU19-PS BB H 1 15:20:54.91 1321.793 00:13:30 Yes
71 Marocik Loft - NY 1302-IF19-PERT RD C 1 15:20:57.84 1321.656 00:13:33 Yes
72 A P C Loft - TX 19134-AU19-APC BB H 4 15:20:59.30 1321.588 00:13:34 Yes
73 Ganus Family Loft - IN 0968-AU19-GFL EGGS SUNNY SIDE UP BB H 2 15:20:59.76 1321.566 00:13:35 Yes
74 Marocik Loft - NY 1306-IF19-PERT BB H 2 15:21:02.57 1321.434 00:13:38 Yes
75 Carter Mayotte - NE 0047-AU19-CART Omaha Omaha BBWF C 1 15:21:15.90 1320.812 00:13:51 Yes
76 Kolvenbag & Son - PA 1348-IF19-KOLV BC H 3 15:21:24.18 1320.425 00:13:59 Yes
77 Greek Connection - SC 1231-AU19-GRK CATERPILAR BB C 4 15:21:25.27 1320.374 00:14:00 Yes
78 Rueter Family Loft - OR 5329-AU19-CORP BB H 1 15:21:27.45 1320.272 00:14:02 Yes
79 S F L - WV 0059-AU19-SFL Pair 51 BB H 2 15:21:29.47 1320.178 00:14:05 Yes
80 Baldwin & Tilson - NC 9059-AU19-TENT 825(570)-1107(1312) BB H 2 15:21:31.05 1320.104 00:14:06 Yes
81 Sam Haslem - UT 0012-AU19-SAM BBWF H 1 15:21:34.46 1319.945 00:14:09 Yes
82 Andy Owen - GA 1077-AU19-CGA BCWF C 1 15:21:35.12 1319.915 00:14:10 Yes
83 Eastern Pearl Loft - VA 0621-AU19-EPL 🈚️量621 BB H 1 15:21:37.22 1319.817 00:14:12 Yes
84 Van Den Bossche Brothers - ME 9228-IF19-CMP Mighty Moose BB H 1 15:21:40.61 1319.658 00:14:16 Yes
85 Zheng Family Loft - NY 0989-AU19-ZFL Lamborghini 989 DC H 1 15:21:54.93 1318.991 00:14:30 Yes
86 Fanway Family Loft - NS 19138-CU19-CNRP BB H 2 15:21:56.50 1318.918 00:14:32 Yes
87 Ganus Family Loft - IN 0324-AU19-GFL FOLLOW ME HOME BOYS BB H 3 15:23:07.49 1315.620 00:15:43 Yes
88 M & Y Connection - MI 0003-AU19-MY 1694 x 7224 BB C 3 15:23:37.23 1314.242 00:16:12 Yes
89 A-Lo Loft/Nemelka - UT 2887-AU19-FOYS ☯️Gangstaoflovex7010 BB C 3 15:23:40.50 1314.092 00:16:16 Yes
90 Q H - FL 19283-IF19-ZHEN BB H 1 15:23:46.37 1313.820 00:16:21 Yes
91 Send An Ace Loft/Bobby Pagdilao - WA 1209-AU19-GSC BB C 1 15:23:50.21 1313.642 00:16:25 Yes
1113.6 92 Linda Loft - PA 0631-IF19-LU Fredy -Lu-564 BBSP H 1 15:23:51.93 1313.563 00:16:27 Yes
93 Shi Loft - PA 7031-IF19-ERIE BB H 3 15:23:53.14 1313.507 00:16:28 Yes
94 Red Ass Ranch - TX 0417-AU19-RAR BB H 1 15:23:56.69 1313.343 00:16:32 Yes
95 Peters - GA 0007-AU19-PETE 00(7) BBWF C 1 15:23:57.80 1313.292 00:16:33 Yes
4165 96 Kolvenbag & Son - PA 1331-IF19-KOLV BC H 4 15:24:12.83 1312.598 00:16:48 Yes
97 Baldwin & Tilson - NC 9043-AU19-TENT 1148-6263 BB H 3 15:24:54.01 1310.701 00:17:29 Yes
98 Pleasant Task Farm - PA 19054-AU19-PTF 4xPTF839 BBSP C 4 15:25:33.24 1308.899 00:18:08 Yes
99 Tex-Mex Loft - TX 0052-AU19-TXMX Dillinger BB C 1 15:25:36.12 1308.767 00:18:11 Yes
100 Onlydaybird Syndicate - NV 14522-AU19-AA ODB's WHIRLWIND BBSP H 1 15:25:36.70 1308.741 00:18:12 Yes

There are 400 bird records

Note: These Race Results are unofficial and subject to change until verified by the Race Committee and declared final.